Location: Beetenbrück
(52.8113°N, 9.5946°E)
Time: 21:43:19
(UTC+00:00)

Cosmos 1943 - Pass Details

Date: 14 April 2026
Orbit: 832 x 847 km, 71.0° (Epoch: 12 May)

Event Time Altitude Azimuth Distance (km) Brightness Sun altitude
Exits shadow 22:34:10 66° 99° (E) 922 3.2 -26.7°
Drops below altitude 10° 22:39:34 10° 35° (NE) 2,477 6.1 -26.9°
Sets 22:42:01 0° 33° (NNE) 3,414 7.0 -26.9°
